Tracking 19800 objects as of 24-Jul-2019
HD Live streaming from Space Station
objects crossing your sky now

THORAD DELTA 1 DEB

Track THORAD DELTA 1 DEB now!
10-day predictions


NORAD ID: 10393
Int'l Code: 1974-089EJ
Perigee: 1,457.5 km
Apogee: 1,707.3 km
Inclination: 101.6 °
Period: 117.6 minutes
Semi major axis: 7953 km
RCS: 0.0302 m2 (small)
Launch date: November 15, 1974
Source: United States (US)
Launch site: AIR FORCE WESTERN TEST RANGE (AFWTR)

Note: This is SATELLITE DEBRIS
aabbcc
Your satellite tracking list
Your tracking list is empty




NASA's NSSDC Master Catalog

Two Line Element Set (TLE):
1 10393U 74089EJ  19204.76937990 -.00000020 +00000-0 +18396-3 0  9993
2 10393 101.6326 297.4933 0157034 249.5303 270.9198 12.23975894001636
Source of the keplerian elements: AFSPC